User: anonymous   Login
Location: Caltech
(34.1382°N, 118.1253°W)
Time: 18:40:36
(UTC-08:00)
Language:

ASTRO E2 - Orbit

View from above orbital plane
View from above orbital plane
View from above satellite
View from above satellite

Ground track
Ground track

The orbit data is extracted from the following two-line orbital elements,

1 28773U 05025A   14329.14540843  .00006291  00000-0  36850-3 0  4186
2 28773 031.3824 223.0076 0005607 344.7980 174.0988 15.10425145515537
Epoch (UTC): 25 November 2014 03:29:23
Eccentricity: 0.0005607
inclination: 31.3824°
perigee height: 531 km
apogee height: 539 km
right ascension of ascending node: 223.0076°
argument of perigee: 344.7980°
revolutions per day: 15.10425145
mean anomaly at epoch: 174.0988°
orbit number at epoch: 51553

The dashed part of the orbit path shows where the satellite is in the earth's shadow,  

DLR